Simultaneous Nadir Overpasses (SNOs) Predictions

Prediction of SNOs between METOP-C and LANDSAT-8 Satellite Orbit:

Table of predicted SNOs for the next 14.0 days since TLE Epoch: 10/16/2021
Index Date (METOP-C) Time (METOP-C) Lat,Lon (METOP-C) SZA (METOP-C ) Date (LANDSAT-8) Time (LANDSAT-8) Lat,Lon (LANDSAT-8) SZA (LANDSAT-8 ) Distance(km) Time Diff (sec)
1 10/17/2021 22:26:55 -81.07, 62.23 87.05 10/17/2021 22:28:01 -81.07, 62.24 87.02 0.21 66
2 10/17/2021 23:17:32 81.11,-129.46 93.09 10/17/2021 23:17:26 81.11,-129.63 93.07 3.01 6
3 10/20/2021 18:01:18 -81.09, 129.04 85.98 10/20/2021 18:02:16 -81.09, 128.88 85.97 2.70 58
4 10/20/2021 18:51:57 81.09, -63.44 94.06 10/20/2021 18:51:42 81.09, -63.38 94.06 1.02 15
5 10/23/2021 13:35:42 -81.07,-164.93 85.03 10/23/2021 13:36:31 -81.07,-164.88 85.00 0.82 49
6 10/23/2021 14:26:19 81.10, 3.31 95.11 10/23/2021 14:25:56 81.10, 3.19 95.08 2.13 23
7 10/26/2021 09:10:05 -81.08, -98.17 84.01 10/26/2021 09:10:46 -81.08, -98.33 84.01 2.69 41
8 10/26/2021 10:00:43 81.10, 69.67 96.07 10/26/2021 10:00:11 81.11, 69.72 96.07 0.92 32
9 10/29/2021 04:44:29 -81.08, -31.82 83.07 10/29/2021 04:45:01 -81.09, -31.82 83.06 0.29 32



Historial Predications of SNOs between METOP-C and LANDSAT-8
